Regional Weather Roundup
Issued by NWS

Home | Current Version | Previous Version | Graphics & Text | Print | Product List | Glossary On
Versions: 1 2 3 4 5 6 7 8 9 10 11 12 13 14 15 16 17 18 19 20 21 22 23 24 25 26 27 28 29 30 31 32 33 34 35 36 37 38 39 40 41 42 43 44 45 46 47 48 49 50
000
ASUS45 KCYS 261810
RWRWY

WYOMING REGIONAL WEATHER ROUNDUP
NATIONAL WEATHER SERVICE CHEYENNE WY
1200 PM MDT WED JUL 26 2017

NOTE:  "FAIR" INDICATES FEW OR NO CLOUDS BELOW 12,000 FEET
WITH NO SIGNIFICANT WEATHER AND/OR OBSTRUCTIONS TO VISIBILITY.

WYZ001-261900-
YELLOWSTONE NATIONAL PARK

CITY           SKY/WX    TMP DP  RH WIND       PRES   REMARKS
LK YELLOWSTONE   N/A     62  49  62 SE3       30.43S
6HR MIN TEMP:  47; 6HR MAX TEMP:  62;

W YELLOWSTONE  NOT AVBL

$$
WYZ002>013-054>058-071-098>099-261900-
NORTHERN WYOMING

CITY           SKY/WX    TMP DP  RH WIND       PRES   REMARKS
JACKSON        NOT AVBL
CODY           FAIR      76  49  38 S6        30.24F
GREYBULL       FAIR      80  53  39 MISG      30.17F
6HR MIN TEMP:  54; 6HR MAX TEMP:  80;

WORLAND        FAIR      82  54  37 NE6       30.17F
6HR MIN TEMP:  52; 6HR MAX TEMP:  82;

SHERIDAN       FAIR      83  54  36 SE13      30.17F
6HR MIN TEMP:  54; 6HR MAX TEMP:  84;

BUFFALO        CLOUDY    78  53  41 SE14      30.25F
6HR MIN TEMP:  58; 6HR MAX TEMP:  78;

GILLETTE       CLOUDY    78  54  43 CALM      30.22F
6HR MIN TEMP:  62; 6HR MAX TEMP:  78;

HULETT         MOCLDY    77  55  47 S5        30.25S
NEWCASTLE      FAIR      72  54  53 NW6       30.25F

$$
WYZ014>020-022>026-101>103-261900-
CENTRAL WYOMING

CITY           SKY/WX    TMP DP  RH WIND       PRES   REMARKS
BIG PINEY      FAIR      68  54  60 VRB6      30.36F
6HR MIN TEMP:  48; 6HR MAX TEMP:  69;

PINEDALE       FAIR      72  46  40 S6        30.36F
DUBOIS         MOCLDY    73  43  33 E6        30.34F
LANDER         FAIR      74  51  44 SE6       30.28F
6HR MIN TEMP:  55; 6HR MAX TEMP:  75;

RIVERTON       FAIR      75  51  43 VRB6      30.26F
6HR MIN TEMP:  55; 6HR MAX TEMP:  76;

CASPER         PTSUNNY   67  57  70 E9        30.30R
6HR MIN TEMP:  59; 6HR MAX TEMP:  67; 6HR PCP: TRACE;

DOUGLAS        CLOUDY    64  59  83 S5        30.31S
6HR MIN TEMP:  59; 6HR MAX TEMP:  64; 6HR PCP:  0.26;


$$
WYZ021-027>030-104>119-261900-
SOUTHERN WYOMING

CITY           SKY/WX    TMP DP  RH WIND       PRES   REMARKS
EVANSTON       CLOUDY    70  52  52 SW12      30.37F
6HR MIN TEMP:  55; 6HR MAX TEMP:  70;

KEMMERER       HVY RAIN  61  54  77 W15       30.40R
FORT BRIDGER   CLOUDY    73  54  51 CALM      30.38F
ROCK SPRINGS   PTSUNNY   74  52  46 VRB3      30.34F
6HR MIN TEMP:  57; 6HR MAX TEMP:  74;

RAWLINS        PTSUNNY   68  55  63 W7        30.35S
6HR MIN TEMP:  59; 6HR MAX TEMP:  71; 6HR PCP:  0.01;

SARATOGA       MOCLDY    68  55  64 N9        30.37S
LARAMIE        PTSUNNY   67  55  65 VRB5      30.36F
6HR MIN TEMP:  57; 6HR MAX TEMP:  68; 6HR PCP:  0.09;

CHEYENNE       CLOUDY    64  58  80 N9        30.32S
6HR MIN TEMP:  60; 6HR MAX TEMP:  64; 6HR PCP:  0.12;

TORRINGTON     FAIR      77  55  46 N9        30.22S
6HR MIN TEMP:  61; 6HR MAX TEMP:  77; 6HR PCP:  0.13;

PINE BLUFFS    CLOUDY    72  57  60 N14G23    30.26F

$$



USA.gov is the U.S. government's official web portal to all federal, state and local government web resources and services.